weather.gov     
National Weather Service

Terminal Aerodrome Forecast
NWS Homepage
This page is being discontinued on March 12, 2014.
The same data is available at this site. Please update your bookmarks.
Thank you, and we apologize for the inconvenience.
Please send an email to SR-SRH.Webmaster@noaa.gov with any concerns.


Current Version
Previous Version:    01  02  03  04  05  06  07  08  09  10  11  12  13  14  15  16  17  18  19  20  21  22  23  24  25  26  27  28  29  30  
   31  32  33  34  35  36  
[Printable]
938
FTUS44 KJAN 211700
TAFHBG
TAF
KHBG 211727Z 2118/2218 05005KT P6SM OVC005
     FM212100 VRB03KT P6SM OVC050
     FM220400 14003KT P6SM BKN015
     FM220800 00000KT 4SM BR OVC003
     FM221000 00000KT 1SM BR OVC001
     FM221500 17005KT 4SM BR OVC010=


U.S. Dept. of Commerce
NOAA National Weather Service
1325 East West Highway
Silver Spring, MD 20910
E-mail: w-nws.webmaster@noaa.gov
Page last modified: May 16, 2007
NATIONAL WEATHER SERVICE: for Safety, for Work, for Fun - FOR LIFE